When you browse on this site, cookies collect data to enhance your experience and personalize the content and advertising you see.
Visit our Privacy Policy to learn more. By continuing to use the site, you agree to this use of cookies and data.
  • In Schweiz
  • Länderverzeichnis
  • Für 7 Tage
  • Wassertemperatur
  • Wetterkarte
  • Widgets
  • user-avatar
    Anmelden

    Stündliche Wetter Maceio

    Heute, 8 April, Mittwoch

    Zeit Temperatur Niederschläge Wind Luftdruck Luftfeuchtigkeit
    00:00 +26°C° 0 mm 2 m/S 758 mmHg 81%
    01:00 +26°C° 0 mm 2 m/S 758 mmHg 83%
    02:00 +26°C° 0 mm 2 m/S 758 mmHg 85%
    03:00 +25°C° 0 mm 2 m/S 758 mmHg 86%
    04:00 +25°C° 0 mm 2 m/S 758 mmHg 86%
    05:00 +25°C° 0 mm 2 m/S 758 mmHg 85%
    06:00 +26°C° 0 mm 1 m/S 758 mmHg 85%
    07:00 +26°C° 0 mm 1 m/S 758 mmHg 85%
    08:00 +28°C° 0 mm 2 m/S 758 mmHg 74%
    09:00 +30°C° 0 mm 2 m/S 759 mmHg 64%
    10:00 +34°C° 0 mm 2 m/S 759 mmHg 53%
    11:00 +34°C° 0 mm 2 m/S 758 mmHg 51%
    12:00 +35°C° 0 mm 3 m/S 758 mmHg 49%
    13:00 +36°C° 0 mm 3 m/S 757 mmHg 47%
    14:00 +35°C° 0 mm 3 m/S 756 mmHg 49%
    15:00 +35°C° 0 mm 4 m/S 756 mmHg 51%
    16:00 +34°C° 0 mm 4 m/S 755 mmHg 54%
    17:00 +32°C° 0 mm 4 m/S 756 mmHg 60%
    18:00 +30°C° 0 mm 4 m/S 756 mmHg 67%
    19:00 +28°C° 0 mm 3 m/S 756 mmHg 74%
    20:00 +28°C° 0 mm 3 m/S 757 mmHg 76%
    21:00 +27°C° 0 mm 3 m/S 757 mmHg 79%
    22:00 +27°C° 0 mm 3 m/S 758 mmHg 81%
    23:00 +27°C° 0 mm 2 m/S 758 mmHg 82%

    Morgen, 9 April, Donnerstag

    Zeit Temperatur Niederschläge Wind Luftdruck Luftfeuchtigkeit
    00:00 +26°C° 0 mm 2 m/S 758 mmHg 83%
    01:00 +26°C° 0 mm 2 m/S 758 mmHg 84%
    02:00 +26°C° 0 mm 2 m/S 757 mmHg 85%
    03:00 +26°C° 0 mm 2 m/S 757 mmHg 86%
    04:00 +25°C° 0 mm 2 m/S 757 mmHg 87%
    05:00 +26°C° 0 mm 2 m/S 757 mmHg 87%
    06:00 +26°C° 0 mm 1 m/S 757 mmHg 86%
    07:00 +26°C° 0 mm 1 m/S 757 mmHg 86%
    08:00 +28°C° 0 mm 2 m/S 758 mmHg 76%
    09:00 +30°C° 0 mm 2 m/S 758 mmHg 66%
    10:00 +34°C° 0 mm 2 m/S 758 mmHg 56%
    11:00 +35°C° 0 mm 3 m/S 758 mmHg 53%
    12:00 +35°C° 0 mm 3 m/S 757 mmHg 50%
    13:00 +36°C° 0 mm 3 m/S 757 mmHg 47%
    14:00 +36°C° 0 mm 4 m/S 756 mmHg 49%
    15:00 +35°C° 0 mm 4 m/S 756 mmHg 52%
    16:00 +35°C° 0 mm 4 m/S 756 mmHg 54%
    17:00 +33°C° 0 mm 4 m/S 756 mmHg 61%
    18:00 +30°C° 0 mm 4 m/S 756 mmHg 68%
    19:00 +29°C° 0 mm 4 m/S 756 mmHg 75%
    20:00 +28°C° 0 mm 4 m/S 757 mmHg 78%
    21:00 +28°C° 0 mm 4 m/S 757 mmHg 81%
    22:00 +27°C° 0 mm 3 m/S 758 mmHg 84%
    23:00 +27°C° 0 mm 3 m/S 758 mmHg 85%

    übermorgen, 10 April, Freitag

    Zeit Temperatur Niederschläge Wind Luftdruck Luftfeuchtigkeit
    00:00 +27°C° 0 mm 3 m/S 758 mmHg 87%
    01:00 +26°C° 0 mm 3 m/S 758 mmHg 88%
    02:00 +26°C° 0 mm 3 m/S 757 mmHg 89%
    03:00 +26°C° 0 mm 2 m/S 757 mmHg 91%
    04:00 +25°C° 0 mm 2 m/S 757 mmHg 92%
    05:00 +26°C° 0 mm 2 m/S 757 mmHg 91%
    06:00 +26°C° 0 mm 2 m/S 757 mmHg 91%
    07:00 +26°C° 0 mm 2 m/S 757 mmHg 90%
    08:00 +28°C° 0 mm 2 m/S 758 mmHg 80%
    09:00 +31°C° 0 mm 2 m/S 758 mmHg 69%
    10:00 +34°C° 0 mm 3 m/S 758 mmHg 58%
    11:00 +35°C° 0 mm 3 m/S 758 mmHg 55%
    12:00 +36°C° 0 mm 4 m/S 757 mmHg 52%
    13:00 +37°C° 0 mm 4 m/S 757 mmHg 49%
    14:00 +36°C° 0 mm 4 m/S 757 mmHg 52%
    15:00 +35°C° 0 mm 5 m/S 756 mmHg 55%
    16:00 +34°C° 0 mm 5 m/S 756 mmHg 59%
    17:00 +33°C° 0 mm 5 m/S 756 mmHg 65%
    18:00 +30°C° 0 mm 5 m/S 757 mmHg 72%
    19:00 +29°C° 0 mm 5 m/S 757 mmHg 79%
    20:00 +29°C° 0.1 mm 4 m/S 757 mmHg 82%
    21:00 +28°C° 0.1 mm 4 m/S 758 mmHg 86%
    22:00 +27°C° 0.1 mm 4 m/S 758 mmHg 90%
    23:00 +27°C° 0 mm 4 m/S 758 mmHg 91%

    11 April, Samstag

    Zeit Temperatur Niederschläge Wind Luftdruck Luftfeuchtigkeit
    00:00 +27°C° 0 mm 4 m/S 758 mmHg 91%
    01:00 +27°C° 0 mm 4 m/S 757 mmHg 92%
    02:00 +27°C° 0 mm 3 m/S 757 mmHg 92%
    03:00 +27°C° 0 mm 3 m/S 757 mmHg 92%
    04:00 +27°C° 0 mm 3 m/S 757 mmHg 92%
    05:00 +27°C° 0 mm 3 m/S 757 mmHg 92%
    06:00 +27°C° 0 mm 3 m/S 757 mmHg 91%
    07:00 +27°C° 0 mm 3 m/S 757 mmHg 91%
    08:00 +29°C° 0.1 mm 3 m/S 758 mmHg 82%
    09:00 +31°C° 0.1 mm 3 m/S 758 mmHg 72%
    10:00 +34°C° 0.1 mm 3 m/S 759 mmHg 62%
    11:00 +35°C° 0 mm 4 m/S 758 mmHg 58%
    12:00 +36°C° 0 mm 4 m/S 758 mmHg 53%
    13:00 +37°C° 0 mm 4 m/S 757 mmHg 48%
    14:00 +36°C° 0 mm 4 m/S 757 mmHg 50%
    15:00 +35°C° 0 mm 5 m/S 757 mmHg 53%
    16:00 +35°C° 0 mm 5 m/S 756 mmHg 55%
    17:00 +33°C° 0 mm 5 m/S 756 mmHg 63%
    18:00 +30°C° 0 mm 5 m/S 757 mmHg 71%
    19:00 +29°C° 0 mm 5 m/S 757 mmHg 79%
    20:00 +28°C° 0 mm 4 m/S 757 mmHg 82%
    21:00 +28°C° 0 mm 4 m/S 758 mmHg 85%
    22:00 +27°C° 0 mm 4 m/S 758 mmHg 88%
    23:00 +27°C° 0 mm 4 m/S 758 mmHg 89%

    12 April, Sonntag

    Zeit Temperatur Niederschläge Wind Luftdruck Luftfeuchtigkeit
    00:00 +27°C° 0 mm 4 m/S 758 mmHg 90%
    01:00 +27°C° 0 mm 4 m/S 758 mmHg 91%
    02:00 +26°C° 0 mm 3 m/S 757 mmHg 91%
    03:00 +26°C° 0 mm 3 m/S 757 mmHg 91%
    04:00 +26°C° 0 mm 3 m/S 757 mmHg 91%
    05:00 +26°C° 0 mm 3 m/S 757 mmHg 91%
    06:00 +26°C° 0 mm 2 m/S 757 mmHg 91%
    07:00 +26°C° 0 mm 2 m/S 757 mmHg 90%
    08:00 +28°C° 0 mm 2 m/S 758 mmHg 78%
    09:00 +31°C° 0 mm 2 m/S 758 mmHg 66%
    10:00 +34°C° 0 mm 2 m/S 759 mmHg 54%
    11:00 +35°C° 0 mm 3 m/S 758 mmHg 51%
    12:00 +36°C° 0 mm 3 m/S 758 mmHg 48%
    13:00 +37°C° 0 mm 3 m/S 757 mmHg 45%
    14:00 +36°C° 0 mm 4 m/S 757 mmHg 50%
    15:00 +35°C° 0 mm 4 m/S 756 mmHg 55%
    16:00 +34°C° 0 mm 5 m/S 756 mmHg 60%
    17:00 +33°C° 0 mm 4 m/S 756 mmHg 67%
    18:00 +30°C° 0 mm 4 m/S 756 mmHg 73%
    19:00 +29°C° 0 mm 4 m/S 757 mmHg 80%
    20:00 +28°C° 0 mm 4 m/S 757 mmHg 83%
    21:00 +28°C° 0 mm 4 m/S 758 mmHg 85%
    22:00 +27°C° 0 mm 3 m/S 758 mmHg 88%
    23:00 +27°C° 0.2 mm 4 m/S 758 mmHg 90%

    13 April, Montag

    Zeit Temperatur Niederschläge Wind Luftdruck Luftfeuchtigkeit
    00:00 +27°C° 0.2 mm 4 m/S 758 mmHg 92%
    01:00 +26°C° 0.2 mm 4 m/S 757 mmHg 94%
    02:00 +26°C° 0.2 mm 3 m/S 757 mmHg 94%
    03:00 +26°C° 0.2 mm 3 m/S 757 mmHg 94%
    04:00 +26°C° 0.2 mm 3 m/S 757 mmHg 94%
    05:00 +26°C° 0.1 mm 3 m/S 757 mmHg 94%
    06:00 +26°C° 0.1 mm 3 m/S 757 mmHg 93%
    07:00 +26°C° 0.1 mm 3 m/S 757 mmHg 92%
    08:00 +28°C° 0 mm 3 m/S 758 mmHg 82%
    09:00 +30°C° 0 mm 3 m/S 758 mmHg 71%
    10:00 +34°C° 0 mm 3 m/S 759 mmHg 60%
    11:00 +35°C° 0 mm 3 m/S 758 mmHg 56%
    12:00 +35°C° 0 mm 3 m/S 758 mmHg 51%
    13:00 +36°C° 0 mm 4 m/S 757 mmHg 46%
    14:00 +36°C° 0 mm 4 m/S 757 mmHg 47%
    15:00 +35°C° 0 mm 4 m/S 756 mmHg 48%
    16:00 +34°C° 0 mm 4 m/S 756 mmHg 48%
    17:00 +33°C° 0 mm 4 m/S 756 mmHg 57%
    18:00 +30°C° 0 mm 4 m/S 756 mmHg 66%
    19:00 +28°C° 0 mm 3 m/S 757 mmHg 74%
    20:00 +28°C° 0 mm 3 m/S 757 mmHg 77%
    21:00 +27°C° 0 mm 3 m/S 758 mmHg 79%
    22:00 +27°C° 0 mm 3 m/S 758 mmHg 82%
    23:00 +27°C° 0 mm 3 m/S 758 mmHg 84%
    Mehr zeigen